Regional Weather Roundup
Issued by NWS

Home | Current Version | Previous Version | Graphics & Text | Print | Product List | Glossary On
Versions: 1 2 3 4 5 6 7 8 9 10 11 12 13 14 15 16 17 18 19 20 21 22 23 24 25 26 27 28 29 30 31 32 33 34 35 36 37 38 39 40 41 42 43 44 45 46 47 48 49 50
000
ASUS45 KBOU 020810
RWRCO

WEATHER ROUNDUP FOR COLORADO
NATIONAL WEATHER SERVICE DENVER/BOULDER CO
200 AM MDT THU JUL 02 2015

NOTE: "FAIR" INDICATES FEW OR NO CLOUDS BELOW 12000 FEET WITH NO
SIGNIFICANT WEATHER AND/OR OBSTRUCTIONS TO VISIBILITY.

COZ001>005-013-030-031-020900-
...NORTHWEST COLORADO...

CITY           SKY/WX    TMP DP  RH WIND       PRES   REMARKS
CRAIG          CLEAR     57  47  69 SE3       30.17S
HAYDEN         CLEAR     59  45  58 SE9       30.20S
MEEKER         MOCLDY    60  51  72 E5        30.19S
MOUNT WERNER   NOT AVBL
STEAMBOAT SPGS PTCLDY    56  48  74 CALM      30.24R
WALDEN         PTCLDY    50  46  87 SE8       30.33S
$$

COZ006>008-011-020900-
...WEST CENTRAL VALLEYS...

CITY           SKY/WX    TMP DP  RH WIND       PRES   REMARKS
GRAND JUNCTION MOCLDY    73  50  44 VRB5      30.02R
MONTROSE       CLOUDY    75  49  39 SE7       30.13S
EAGLE          PTCLDY    63  50  63 CALM      30.25S
RIFLE          MOCLDY    68  49  50 E6        30.12R
DELTA          NOT AVBL
NUCLA          CLOUDY    72  46  40 E7        30.16S
$$

COZ017>023-064>068-020900-
...SOUTHWEST COLORADO...

CITY           SKY/WX    TMP DP  RH WIND       PRES   REMARKS
DURANGO        CLOUDY    64  53  67 CALM      30.24F
CORTEZ         PTCLDY    77  47  34 SE13G18   30.15S
PAGOSA SPRINGS CLOUDY    61  50  66 SW3       30.34R
TELLURIDE      CLOUDY    64  43  47 SE5       30.42F
WOLF CREEK PAS NOT AVBL
$$

COZ009-010-012-014-032>034-037-058>063-020900-
...CENTRAL COLORADO...

CITY           SKY/WX    TMP DP  RH WIND       PRES   REMARKS
ASPEN          PTCLDY    56  47  71 CALM      30.30F
BUENA VISTA    MOCLDY    54  52  94 NW3       30.35F
COPPER MTN     PTCLDY    54  37  54 S10       30.64S
BERTHOUD PASS  FAIR      46  36  66 NW23      30.66F
COTTONWOOD PAS NOT AVBL
GUNNISON       CLOUDY    64  46  52 N10       30.35F
KREMMLING      CLEAR     55  46  71 CALM      30.29F
LEADVILLE      PTCLDY    45  44  97 NE5       30.48F
MONARCH PASS   CLOUDY    48  41  76 SW10      30.74S
SALIDA         NOT AVBL
SUNLIGHT       PTCLDY    61  43  51 CALM      30.57S
WILKERSON PASS PTCLDY    46  45  93 W9G16     30.59F
$$

COZ069>075-020900-
...SAN LUIS VALLEY/SANGRE DE CRISTO MOUNTAINS...

CITY           SKY/WX    TMP DP  RH WIND       PRES   REMARKS
ALAMOSA        MOCLDY    55  53  93 S3        30.33F
LA VETA PASS   CLOUDY    48  45  87 MISG      30.49F
SAGUACHE       CLOUDY    54  52  94 NW8       30.37S
$$

COZ035-036-038>040-020900-
...NORTHERN COLORADO FRONT RANGE...

CITY           SKY/WX    TMP DP  RH WIND       PRES   REMARKS
DENVER INTL AP PTCLDY    65  54  67 SW9       30.08F
DMNS CITY PARK   N/A     66  55  68 S10       30.07F
AURORA         PTCLDY    64  55  72 S13       30.10F
FRONT RANGE AP CLEAR     64  55  72 S9        30.11S
ERIE MUNI ARPT CLEAR     62  58  87 CALM      30.07S
BOULDER MUN AP CLEAR     64  57  77 CALM      30.07F
CENTENNIAL     PTCLDY    63  55  75 S12       30.12F
BROOMFIELD     CLEAR     61  57  88 SW7       30.10F
FORT COLLINS   CLEAR     63  55  77 NE6       30.08F
LONGMONT       CLEAR     61  56  83 CALM      30.08F
$$

COZ041-046-047-076>085-087-088-020900-
...PIKES PEAK/PALMER DIVIDE AND SOUTHERN FOOTHILLS...

CITY           SKY/WX    TMP DP  RH WIND       PRES   REMARKS
COLO. SPRINGS  MOCLDY    61  57  87 W3        30.20F
A. F. ACADEMY  PTCLDY    58  58 100 CALM      30.21F
ELLICOTT       PTCLDY   N/A N/A N/A SW5       30.19F
FALCON         PTCLDY    56  55  95 SW7       30.25F
FORT CARSON    PTCLDY    60  58  94 S5        30.17F
LIMON          CLEAR     61  56  83 S5        30.15F
MONUMENT HILL  PTCLDY    55  54  94 S14       30.23F
TRINIDAD       CLOUDY    62  59  90 W6        30.21F
$$

COZ042>045-048>051-090-091-020900-
...NORTHEAST COLORADO...

CITY           SKY/WX    TMP DP  RH WIND       PRES   REMARKS
GREELEY ARPT   CLEAR     63  61  94 NE5       30.07F
AKRON          CLEAR     65  56  72 S8        30.09S
BURLINGTON     PTCLDY    63  60  90 W9        30.06F
WRAY           MOCLDY    68  56  65 NW9       30.00F
STERLING       CLEAR     63  57  82 N3          N/A
HOLYOKE        MOCLDY    68  55  64 W6        30.04S
FORT MORGAN    CLEAR     60  56  88 E3        30.08F
$$

COZ086-089-092>099-020900-
...SOUTHEAST COLORADO...

CITY           SKY/WX    TMP DP  RH WIND       PRES   REMARKS
PUEBLO         MOCLDY    66  61  84 CALM      30.12F
LA JUNTA       MOCLDY    66  64  93 W8        30.09F
LAMAR          CLOUDY    67  65  93 W13       30.03S
SPRINGFIELD      N/A     65  64  97 SW5       30.09F
$$



USA.gov is the U.S. government's official web portal to all federal, state and local government web resources and services.